| time (UTC) | temp C | wind direction | speed KPH | gust KPH | rain 1hr cm | rain 24hr cm | rain mn cm | humidity % | barometer mb |
| 20260506175127 | 10 | 147 | 4.8 | 8.0 | 0.00 | 0.00 | 0.00 | 81 | 1014.7 |
| 20260506174105 | 10 | 211 | 3.2 | 8.0 | 0.00 | 0.00 | 0.00 | 81 | 1014.5 |
| 20260506173103 | 11 | 143 | 3.2 | 4.8 | 0.00 | 0.00 | 0.00 | 81 | 1014.4 |
| 20260506172102 | 11 | 227 | 3.2 | 6.4 | 0.00 | 0.00 | 0.00 | 80 | 1014.4 |
| 20260506171121 | 11 | 258 | 6.4 | 12.9 | 0.00 | 0.00 | 0.00 | 79 | 1014.3 |
| 20260506165119 | 11 | 76 | 1.6 | 4.8 | 0.00 | 0.00 | 0.00 | 81 | 1014.1 |
| 20260506164058 | 11 | 75 | 3.2 | 9.7 | 0.00 | 0.00 | 0.00 | 81 | 1014.1 |
| 20260506163117 | 11 | 148 | 4.8 | 6.4 | 0.00 | 0.00 | 0.00 | 80 | 1014.3 |
| 20260506162056 | 11 | 213 | 3.2 | 8.0 | 0.00 | 0.00 | 0.00 | 80 | 1014.3 |
| 20260506161054 | 11 | 239 | 3.2 | 8.0 | 0.00 | 0.00 | 0.00 | 79 | 1014.3 |
| 20260506160114 | 11 | 264 | 4.8 | 9.7 | 0.00 | 0.00 | 0.00 | 80 | 1014.1 |
| 20260506155052 | 11 | 266 | 4.8 | 12.9 | 0.00 | 0.00 | 0.00 | 79 | 1014.2 |
| 20260506154050 | 11 | 243 | 4.8 | 11.3 | 0.00 | 0.00 | 0.00 | 79 | 1014.3 |
| 20260506153109 | 11 | 291 | 6.4 | 16.1 | 0.00 | 0.00 | 0.00 | 78 | 1014.3 |
| 20260506152049 | 11 | 277 | 8.0 | 14.5 | 0.00 | 0.00 | 0.00 | 78 | 1014.3 |
| 20260506151048 | 11 | 208 | 4.8 | 8.0 | 0.00 | 0.00 | 0.00 | 81 | 1014.3 |
| 20260506150047 | 11 | 266 | 4.8 | 11.3 | 0.00 | 0.00 | 0.00 | 81 | 1014.3 |
| 20260506145045 | 11 | 202 | 3.2 | 3.2 | 0.00 | 0.00 | 0.00 | 83 | 1014.1 |
| 20260506144104 | 11 | 203 | 3.2 | 11.3 | 0.00 | 0.00 | 0.00 | 83 | 1014.2 |
| 20260506143043 | 11 | 229 | 6.4 | 11.3 | 0.00 | 0.00 | 0.00 | 82 | 1014.1 |
| 20260506142142 | 11 | 133 | 1.6 | 6.4 | 0.00 | 0.00 | 0.00 | 84 | 1014.2 |
| 20260506141040 | 11 | 177 | 4.8 | 9.7 | 0.00 | 0.00 | 0.00 | 82 | 1014.0 |
| 20260506140040 | 11 | 338 | 1.6 | 6.4 | 0.00 | 0.00 | 0.00 | 84 | 1013.9 |
| 20260506135037 | 11 | 127 | 4.8 | 6.4 | 0.00 | 0.00 | 0.00 | 85 | 1014.0 |
| 20260506134057 | 10 | 166 | 3.2 | 9.7 | 0.00 | 0.00 | 0.00 | 86 | 1014.1 |
| 20260506133035 | 10 | 150 | 4.8 | 8.0 | 0.00 | 0.00 | 0.00 | 87 | 1014.0 |
| 20260506132114 | 10 | 209 | 4.8 | 11.3 | 0.00 | 0.00 | 0.00 | 88 | 1014.0 |
| 20260506131033 | 10 | 108 | 3.2 | 6.4 | 0.00 | 0.00 | 0.00 | 89 | 1014.0 |
| 20260506130033 | 10 | 87 | 3.2 | 6.4 | 0.00 | 0.00 | 0.00 | 89 | 1013.9 |
| 20260506125030 | 10 | 213 | 3.2 | 8.0 | 0.00 | 0.00 | 0.00 | 90 | 1013.9 |
| 20260506124029 | 10 | 120 | 4.8 | 6.4 | 0.00 | 0.00 | 0.00 | 91 | 1014.0 |
| 20260506123028 | 10 | 201 | 6.4 | 6.4 | 0.00 | 0.00 | 0.00 | 90 | 1013.7 |
| 20260506122027 | 10 | 198 | 12.9 | 16.1 | 0.00 | 0.00 | 0.00 | 90 | 1013.7 |
| 20260506121026 | 10 | 252 | 11.3 | 22.5 | 0.00 | 0.00 | 0.00 | 89 | 1013.6 |
| 20260506120024 | 10 | 283 | 12.9 | 24.1 | 0.00 | 0.00 | 0.00 | 90 | 1013.5 |
| 20260506115044 | 10 | 261 | 8.0 | 17.7 | 0.00 | 0.00 | 0.00 | 91 | 1013.4 |
| 20260506114022 | 10 | 239 | 9.7 | 20.9 | 0.00 | 0.00 | 0.00 | 91 | 1013.2 |
| 20260506113021 | 10 | 196 | 6.4 | 11.3 | 0.00 | 0.00 | 0.00 | 89 | 1013.1 |
| 20260506112020 | 11 | 242 | 14.5 | 32.2 | 0.00 | 0.00 | 0.00 | 87 | 1012.9 |
| 20260506111019 | 12 | 290 | 6.4 | 17.7 | 0.00 | 0.00 | 0.00 | 86 | 1012.6 |
| 20260506110058 | 12 | 290 | 9.7 | 19.3 | 0.00 | 0.00 | 0.00 | 85 | 1012.5 |
| 20260506105016 | 12 | 320 | 8.0 | 17.7 | 0.00 | 0.00 | 0.00 | 84 | 1012.3 |
| 20260506104115 | 12 | 292 | 11.3 | 22.5 | 0.00 | 0.00 | 0.00 | 83 | 1012.3 |
| 20260506103114 | 12 | 302 | 6.4 | 14.5 | 0.00 | 0.00 | 0.00 | 84 | 1012.2 |
| 20260506102112 | 12 | 347 | 4.8 | 11.3 | 0.00 | 0.00 | 0.00 | 84 | 1012.3 |
| 20260506101112 | 12 | 314 | 6.4 | 12.9 | 0.00 | 0.00 | 0.00 | 85 | 1012.2 |
| 20260506100110 | 12 | 4 | 6.4 | 9.7 | 0.00 | 0.00 | 0.00 | 85 | 1012.1 |
| 20260506095110 | 12 | 324 | 6.4 | 9.7 | 0.00 | 0.00 | 0.00 | 87 | 1012.1 |
| 20260506094108 | 12 | 341 | 4.8 | 9.7 | 0.00 | 0.00 | 0.00 | 87 | 1012.0 |
| 20260506093107 | 11 | 157 | 1.6 | 3.2 | 0.00 | 0.00 | 0.00 | 87 | 1012.2 |
| 20260506092105 | 11 | 295 | 1.6 | 4.8 | 0.00 | 0.00 | 0.00 | 87 | 1012.1 |
| 20260506091105 | 11 | 19 | 1.6 | 4.8 | 0.00 | 0.00 | 0.00 | 86 | 1011.9 |
| 20260506090123 | 12 | 15 | 3.2 | 4.8 | 0.00 | 0.00 | 0.00 | 87 | 1011.8 |
| 20260506085103 | 12 | 5 | 3.2 | 6.4 | 0.00 | 0.00 | 0.00 | 86 | 1011.9 |
| 20260506084101 | 12 | 89 | 3.2 | 3.2 | 0.00 | 0.00 | 0.00 | 86 | 1011.8 |
| 20260506083100 | 12 | 65 | 1.6 | 4.8 | 0.00 | 0.00 | 0.00 | 83 | 1011.8 |
| 20260506082120 | 12 | 126 | 3.2 | 4.8 | 0.00 | 0.00 | 0.00 | 84 | 1011.7 |
| 20260506081057 | 12 | 124 | 3.2 | 6.4 | 0.00 | 0.00 | 0.00 | 85 | 1011.8 |
| 20260506073113 | 11 | 70 | 1.6 | 6.4 | 0.00 | 0.00 | 0.00 | 86 | 1011.6 |
| 20260506072112 | 11 | 94 | 3.2 | 6.4 | 0.00 | 0.00 | 0.00 | 86 | 1011.7 |
| 20260506071050 | 11 | 83 | 4.8 | 6.4 | 0.00 | 0.00 | 0.00 | 86 | 1011.7 |
| 20260506062044 | 10 | 120 | 4.8 | 9.7 | 0.00 | 0.00 | 0.00 | 92 | 1011.6 |
| 20260506061044 | 10 | 102 | 3.2 | 8.0 | 0.00 | 0.00 | 0.00 | 93 | 1011.7 |
| 20260506051056 | 9 | 163 | 3.2 | 4.8 | 0.00 | 0.00 | 0.00 | 95 | 1012.0 |
| 20260506045034 | 9 | 129 | 6.4 | 11.3 | 0.00 | 0.00 | 0.00 | 95 | 1011.8 |
| 20260506044032 | 9 | 129 | 6.4 | 11.3 | 0.00 | 0.00 | 0.00 | 95 | 1011.9 |
| 20260506043032 | 9 | 127 | 6.4 | 9.7 | 0.00 | 0.00 | 0.00 | 95 | 1011.8 |
| 20260506042030 | 9 | 154 | 8.0 | 11.3 | 0.00 | 0.00 | 0.00 | 95 | 1011.9 |
| 20260506041029 | 9 | 170 | 4.8 | 8.0 | 0.00 | 0.00 | 0.00 | 96 | 1011.9 |
| 20260506040028 | 9 | 166 | 4.8 | 9.7 | 0.00 | 0.00 | 0.00 | 96 | 1011.9 |
| 20260506035047 | 9 | 125 | 3.2 | 8.0 | 0.00 | 0.00 | 0.00 | 96 | 1012.0 |
| 20260506034026 | 9 | 77 | 1.6 | 6.4 | 0.00 | 0.00 | 0.00 | 96 | 1012.1 |
| 20260506033024 | 9 | 98 | 3.2 | 6.4 | 0.00 | 0.00 | 0.00 | 96 | 1012.2 |
| 20260506032043 | 9 | 350 | 6.4 | 9.7 | 0.00 | 0.00 | 0.00 | 96 | 1012.3 |
| 20260506031022 | 9 | 39 | 4.8 | 6.4 | 0.00 | 0.00 | 0.00 | 95 | 1012.3 |
| 20260506030021 | 9 | 73 | 1.6 | 6.4 | 0.00 | 0.00 | 0.00 | 94 | 1012.4 |
| 20260506025019 | 9 | 164 | 6.4 | 9.7 | 0.00 | 0.00 | 0.00 | 95 | 1012.7 |
| 20260506024039 | 10 | 125 | 4.8 | 11.3 | 0.00 | 0.00 | 0.00 | 93 | 1012.6 |
| 20260506023017 | 10 | 121 | 6.4 | 14.5 | 0.00 | 0.00 | 0.00 | 92 | 1012.7 |
| 20260506022057 | 10 | 156 | 4.8 | 12.9 | 0.00 | 0.00 | 0.00 | 94 | 1012.8 |
| 20260506021116 | 10 | 179 | 4.8 | 9.7 | 0.00 | 0.00 | 0.00 | 96 | 1012.8 |
| 20260506020114 | 10 | 150 | 4.8 | 6.4 | 0.00 | 0.00 | 0.00 | 95 | 1012.9 |
| 20260506015112 | 10 | 147 | 4.8 | 6.4 | 0.00 | 0.00 | 0.00 | 96 | 1013.1 |
| 20260506014111 | 10 | 149 | 4.8 | 4.8 | 0.00 | 0.00 | 0.00 | 95 | 1013.2 |
| 20260506013110 | 10 | 112 | 3.2 | 4.8 | 0.00 | 0.00 | 0.00 | 95 | 1013.4 |
| 20260506012109 | 10 | 105 | 4.8 | 6.4 | 0.00 | 0.00 | 0.00 | 95 | 1013.6 |
| 20260506011107 | 10 | 120 | 4.8 | 6.4 | 0.00 | 0.00 | 0.00 | 95 | 1013.8 |
| 20260506010106 | 10 | 92 | 3.2 | 4.8 | 0.00 | 0.00 | 0.00 | 94 | 1013.8 |
| 20260506005105 | 10 | 139 | 3.2 | 4.8 | 0.00 | 0.00 | 0.00 | 94 | 1013.8 |
| 20260506004105 | 10 | 141 | 4.8 | 8.0 | 0.00 | 0.00 | 0.00 | 94 | 1013.8 |
| 20260506003102 | 10 | 167 | 6.4 | 8.0 | 0.00 | 0.00 | 0.00 | 94 | 1014.0 |
| 20260506002102 | 10 | 166 | 8.0 | 11.3 | 0.00 | 0.00 | 0.00 | 94 | 1014.1 |
| 20260506001120 | 10 | 151 | 6.4 | 8.0 | 0.00 | 0.00 | 0.00 | 95 | 1014.2 |
| 20260506000100 | 10 | 77 | 4.8 | 6.4 | 0.00 | 0.00 | 0.00 | 94 | 1014.2 |
| 20260505235058 | 10 | 106 | 4.8 | 6.4 | 0.00 | 0.00 | 0.00 | 93 | 1014.1 |
| 20260505234058 | 10 | 140 | 1.6 | 4.8 | 0.00 | 0.00 | 0.00 | 93 | 1014.3 |
| 20260505233056 | 10 | 136 | 3.2 | 3.2 | 0.00 | 0.00 | 0.00 | 94 | 1014.3 |
| 20260505232054 | 10 | 126 | 3.2 | 6.4 | 0.00 | 0.00 | 0.00 | 94 | 1014.5 |
| 20260505231053 | 10 | 147 | 4.8 | 8.0 | 0.00 | 0.00 | 0.00 | 94 | 1014.5 |
| 20260505230052 | 10 | 152 | 4.8 | 6.4 | 0.00 | 0.00 | 0.00 | 95 | 1014.8 |
| 20260505225111 | 10 | 144 | 6.4 | 8.0 | 0.00 | 0.00 | 0.00 | 95 | 1014.7 |
| 20260505224051 | 10 | 144 | 3.2 | 6.4 | 0.00 | 0.00 | 0.00 | 95 | 1014.8 |
| 20260505223049 | 10 | 124 | 3.2 | 4.8 | 0.00 | 0.00 | 0.00 | 94 | 1014.7 |
| 20260505222047 | 10 | 89 | 1.6 | 4.8 | 0.00 | 0.00 | 0.00 | 94 | 1014.6 |
| 20260505221046 | 10 | 107 | 3.2 | 4.8 | 0.00 | 0.00 | 0.00 | 94 | 1014.6 |
| 20260505220124 | 10 | 131 | 4.8 | 6.4 | 0.00 | 0.00 | 0.00 | 94 | 1014.8 |
| 20260505215044 | 10 | 129 | 4.8 | 6.4 | 0.00 | 0.00 | 0.00 | 94 | 1014.8 |
| 20260505214042 | 10 | 128 | 4.8 | 6.4 | 0.00 | 0.00 | 0.00 | 94 | 1014.8 |
| 20260505213041 | 10 | 128 | 6.4 | 9.7 | 0.00 | 0.00 | 0.00 | 93 | 1014.9 |
| 20260505212040 | 10 | 116 | 4.8 | 6.4 | 0.00 | 0.00 | 0.00 | 92 | 1015.0 |
| 20260505211039 | 10 | 160 | 6.4 | 8.0 | 0.00 | 0.00 | 0.00 | 92 | 1015.0 |
| 20260505210037 | 10 | 161 | 8.0 | 9.7 | 0.00 | 0.00 | 0.00 | 93 | 1015.0 |
| 20260505205036 | 11 | 108 | 6.4 | 8.0 | 0.00 | 0.00 | 0.00 | 92 | 1015.1 |
| 20260505204035 | 11 | 151 | 8.0 | 9.7 | 0.00 | 0.00 | 0.00 | 91 | 1015.0 |
| 20260505203033 | 11 | 160 | 8.0 | 9.7 | 0.00 | 0.00 | 0.00 | 92 | 1014.9 |
| 20260505202032 | 11 | 136 | 6.4 | 9.7 | 0.00 | 0.00 | 0.00 | 91 | 1014.8 |
| 20260505201031 | 11 | 149 | 6.4 | 9.7 | 0.00 | 0.00 | 0.00 | 91 | 1014.7 |
| 20260505200030 | 11 | 158 | 4.8 | 6.4 | 0.00 | 0.00 | 0.00 | 90 | 1014.6 |
| 20260505195049 | 11 | 71 | 3.2 | 6.4 | 0.00 | 0.00 | 0.00 | 89 | 1014.5 |
| 20260505194028 | 12 | 152 | 4.8 | 6.4 | 0.00 | 0.00 | 0.00 | 88 | 1014.4 |
| 20260505193026 | 12 | 170 | 4.8 | 6.4 | 0.00 | 0.00 | 0.00 | 88 | 1014.4 |
| 20260505192025 | 12 | 180 | 6.4 | 8.0 | 0.00 | 0.00 | 0.00 | 86 | 1014.3 |
| 20260505191024 | 12 | 181 | 4.8 | 6.4 | 0.00 | 0.00 | 0.00 | 86 | 1014.2 |
| 20260505190023 | 12 | 162 | 4.8 | 11.3 | 0.00 | 0.00 | 0.00 | 86 | 1013.9 |
| 20260505185022 | 13 | 163 | 3.2 | 4.8 | 0.00 | 0.00 | 0.00 | 84 | 1013.9 |
| 20260505184020 | 14 | 185 | 4.8 | 6.4 | 0.00 | 0.00 | 0.00 | 80 | 1013.9 |
| 20260505183040 | 14 | 206 | 4.8 | 11.3 | 0.00 | 0.00 | 0.00 | 76 | 1013.8 |
| 20260505182038 | 15 | 173 | 3.2 | 6.4 | 0.00 | 0.00 | 0.00 | 77 | 1013.8 |
| 20260505181016 | 15 | 157 | 3.2 | 6.4 | 0.00 | 0.00 | 0.00 | 75 | 1013.9 |
| 20260505180115 | 15 | 215 | 6.4 | 11.3 | 0.00 | 0.00 | 0.00 | 75 | 1013.9 |